This is the latest recevied weather packets stored in our database for station/object F5OWB. If no packets are shown the sender has not sent any weather packets the latest 10 day(s).
| Time | Temp. | Humidity | Pressure | Rain* | Wind** | Luminosity | Snow |
|---|---|---|---|---|---|---|---|
| 1778255734 | 19.44° C | 49% | 1017.1 hPa | 0 mm | - | 232 W/m² | - |
| 1778255673 | 19.44° C | 50% | 1017.1 hPa | 0 mm | - | 248 W/m² | - |
| 1778255616 | 19.44° C | 53% | 1017.1 hPa | 0 mm | - | 234 W/m² | - |
| 1778255554 | 19.44° C | 50% | 1017.1 hPa | 0 mm | - | 237 W/m² | - |
| 1778255497 | 19.44° C | 53% | 1017.2 hPa | 0 mm | - | 251 W/m² | - |
| 1778255436 | 19.44° C | 53% | 1017.1 hPa | 0 mm | - | 239 W/m² | - |
| 1778255373 | 19.44° C | 51% | 1017.1 hPa | 0 mm | - | 239 W/m² | - |
| 1778255314 | 19.44° C | 49% | 1017.1 hPa | 0 mm | - | 253 W/m² | - |
| 1778255252 | 19.44° C | 50% | 1017.1 hPa | 0 mm | - | 322 W/m² | - |
| 1778255196 | 19.44° C | 49% | 1017.1 hPa | 0 mm | - | 322 W/m² | - |
| 1778255133 | 19.44° C | 50% | 1017.1 hPa | 0 mm | - | 332 W/m² | - |
| 1778255070 | 19.44° C | 49% | 1017 hPa | 0 mm | - | 332 W/m² | - |
| 1778255009 | 19.44° C | 46% | 1017 hPa | 0 mm | - | 279 W/m² | - |
| 1778254950 | 19.44° C | 48% | 1017 hPa | 0 mm | - | 248 W/m² | - |
| 1778254890 | 19.44° C | 53% | 1017 hPa | 0 mm | - | 223 W/m² | - |
| 1778254830 | 19.44° C | 53% | 1017 hPa | 0 mm | - | 214 W/m² | - |
| 1778254772 | 19.44° C | 52% | 1017 hPa | 0 mm | - | 204 W/m² | - |
| 1778254710 | 19.44° C | 52% | 1017 hPa | 0 mm | - | 199 W/m² | - |
| 1778254650 | 19.44° C | 52% | 1017 hPa | 0 mm | - | 186 W/m² | - |
| 1778254591 | 19.44° C | 51% | 1017 hPa | 0 mm | - | 178 W/m² | - |
| 1778254529 | 19.44° C | 52% | 1017 hPa | 0 mm | - | 176 W/m² | - |
| 1778254470 | 19.44° C | 53% | 1017 hPa | 0 mm | - | 174 W/m² | - |
| 1778254410 | 19.44° C | 52% | 1017 hPa | 0 mm | - | 172 W/m² | - |
| 1778254349 | 19.44° C | 52% | 1017 hPa | 0 mm | - | 172 W/m² | - |
| 1778254292 | 19.44° C | 50% | 1017 hPa | 0 mm | - | 171 W/m² | - |
* Rain latest hour (hover to see other rain measurements)
** Current wind speed in m/s (hover to see current wind gust speed)